Ubon Ratchathani, Thailand

7:57 PM ICT on February 14, 2016 (GMT +0700)
Ubon Ratchathani

Weather History for VTUU - November, 2012

Change the Weather History Date:

Thursday, November 15, 2012

  Actual Average Record
Temperature  
Mean Temperature 81 °F -  
Max Temperature 91 °F 86 °F - ()
Min Temperature 71 °F 66 °F - ()
Cooling Degree Days 16    
Growing Degree Days 31 (Base 50)    
Moisture  
Dew Point 69 °F    
Average Humidity 67    
Maximum Humidity 88    
Minimum Humidity 39    
Precipitation  
Precipitation 0.01 in 0.02 in - ()
Sea Level Pressure  
Sea Level Pressure 29.82 in    
Wind  
Wind Speed 4 mph ()    
Max Wind Speed 7 mph    
Max Gust Speed -    
Visibility 5.9 miles    
Events      
T = Trace of Precipitation, MM = Missing Value Source: Averaged Metar Reports

Daily Weather History Graph

Daily Weather History Graph

Search for Another Location

Airport or City:

Trip Planner

Search our weather history database for the weather conditions in past years. The results will help you decide how hot, cold, wet, or windy it might be!

Date:

Astronomy

Nov. 15, 2012 Rise Set
Actual Time 6:02 AM ICT 5:27 PM ICT
Civil Twilight 5:39 AM ICT 5:50 PM ICT
Nautical Twilight 5:13 AM ICT 6:16 PM ICT
Astronomical Twilight 4:47 AM ICT 6:42 PM ICT
Moon 7:13 AM ICT (11/15) 6:54 PM ICT (11/15)
Length of Visible Light 12h 10m
Length of Day
11h 25m
New Moon, 3% of the Moon is Illuminated
Nov 15
New Moon
Nov 20
First Quarter
Nov 28
Full
Dec 6
Last Quarter
Dec 13
New

Hourly Weather History & Observations

Time (ICT) Temp. Heat Index Dew Point Humidity Pressure Visibility Wind Dir Wind Speed Gust Speed Precip Events Conditions
12:00 AM 77.0 °F - 69.8 °F 78% 29.83 in - NNE 3.5 mph - N/A   Clear
1:00 AM 76 °F - 70 °F 75% 29.81 in 6 mi NNE 3.5 mph - -   Scattered Clouds
1:00 AM 77.0 °F - 69.8 °F 78% 29.80 in - NNE 3.5 mph - N/A   Clear
2:00 AM 75.2 °F - 69.8 °F 83% 29.80 in - NE 3.5 mph - N/A   Clear
4:00 AM 75.2 °F - 69.8 °F 83% 29.77 in - North 3.5 mph - N/A   Clear
5:00 AM 73.4 °F - 69.8 °F 88% 29.77 in - NNE 3.5 mph - N/A   Clear
6:00 AM 73.4 °F - 69.8 °F 88% 29.80 in 5.6 mi NNE 2.3 mph - N/A   Unknown
6:30 AM 73.4 °F - 69.8 °F 88% 29.83 in 5.6 mi North 2.3 mph - N/A   Unknown
7:00 AM 73 °F - 70 °F 87% 29.85 in 6 mi North 2.3 mph - -   Mist
7:00 AM 73.4 °F - 68.0 °F 83% 29.83 in 5.6 mi North 2.3 mph - N/A   Unknown
8:00 AM 77.0 °F - 69.8 °F 78% 29.86 in - NNE 5.8 mph - N/A   Clear
9:00 AM 78.8 °F - 68.0 °F 69% 29.86 in - NNE 5.8 mph - N/A   Clear
10:00 AM 82.4 °F 86.3 °F 69.8 °F 66% 29.89 in - East 6.9 mph - N/A   Clear
11:00 AM 86.0 °F 89.4 °F 68.0 °F 55% 29.86 in - North 5.8 mph - N/A   Clear
12:00 PM 87.8 °F 91.4 °F 68.0 °F 52% 29.83 in 6.2 mi NE 5.8 mph - N/A   Mostly Cloudy
1:00 PM 88 °F - 67 °F 39% 29.83 in 6 mi NE 5.8 mph - -   Scattered Clouds
1:00 PM 87.8 °F 90.4 °F 66.2 °F 49% 29.83 in 6.2 mi NE 5.8 mph - N/A   Mostly Cloudy
2:00 PM 89.6 °F 93.4 °F 68.0 °F 49% 29.80 in 6.2 mi ENE 5.8 mph - N/A   Mostly Cloudy
3:00 PM 89.6 °F 93.4 °F 68.0 °F 49% 29.77 in 6.2 mi East 5.8 mph - N/A   Mostly Cloudy
4:00 PM 91.4 °F 96.8 °F 69.8 °F 49% 29.77 in 6.2 mi North 4.6 mph - N/A   Mostly Cloudy
5:00 PM 87.8 °F 92.6 °F 69.8 °F 55% 29.77 in 6.2 mi NE 4.6 mph - N/A   Mostly Cloudy
5:30 PM 87.8 °F 92.6 °F 69.8 °F 55% 29.80 in 5.6 mi NE 4.6 mph - N/A   Mostly Cloudy
6:00 PM 86.0 °F 90.4 °F 69.8 °F 58% 29.80 in 5.6 mi NE 3.5 mph - N/A   Mostly Cloudy
7:00 PM 84 °F - 70 °F 55% 29.83 in 6 mi NNE 4.6 mph - -   Haze
7:00 PM 84.2 °F 88.4 °F 69.8 °F 62% 29.83 in 5.6 mi NNE 4.6 mph - N/A   Mostly Cloudy
8:00 PM 82.4 °F 86.3 °F 69.8 °F 66% 29.83 in 6.2 mi NNE 5.8 mph - N/A   Mostly Cloudy
9:00 PM 80.6 °F 83.9 °F 69.8 °F 70% 29.86 in - NNE 5.8 mph - N/A   Clear
10:00 PM 80.6 °F 83.9 °F 69.8 °F 70% 29.86 in 5.6 mi North 2.3 mph - N/A   Overcast